Weather History for KONP - March, 2014

Change the Weather History Date:

Saturday, March 29, 2014

  Actual Average Record
Temperature  
Mean Temperature 50 °F -  
Max Temperature 53 °F 51 °F 68 °F (2003)
Min Temperature 46 °F 39 °F 33 °F (2007)
Degree Days  
Heating Degree Days 16    
Moisture  
Dew Point 47 °F    
Average Humidity 88    
Maximum Humidity 100    
Minimum Humidity 76    
Precipitation  
Precipitation 0.11 in - - ()
Sea Level Pressure  
Sea Level Pressure 29.88 in    
Wind  
Wind Speed 19 mph (SSW)    
Max Wind Speed 31 mph    
Max Gust Speed 45 mph    
Visibility 6 miles    
Events Rain    
Averages and records for this station are not official NWS values.
T = Trace of Precipitation, MM = Missing Value Source: NWS Daily Summary

Daily Weather History Graph

Daily Weather History Graph

Search for Another Location

Airport or City:

Trip Planner

Search our weather history database for the weather conditions in past years. The results will help you decide how hot, cold, wet, or windy it might be!

Date:

Astronomy

Mar. 29, 2014 Rise Set
Actual Time 7:02 AM PDT 7:40 PM PDT
Civil Twilight 6:33 AM PDT 8:09 PM PDT
Nautical Twilight 5:58 AM PDT 8:44 PM PDT
Astronomical Twilight 5:22 AM PDT 9:20 PM PDT
Moon 6:17 AM PDT (3/29) 6:50 PM PDT (3/29)
Length of Visible Light 13h 36m
Length of Day
12h 37m
Waning Crescent, 1% of the Moon is Illuminated
Mar 29
Waning Crescent
Mar 30
New
Apr 7
First Quarter
Apr 15
Full
Apr 22
Last Quarter

Hourly Weather History & Observations

Time (PDT) Temp. Windchill Dew Point Humidity Pressure Visibility Wind Dir Wind Speed Gust Speed Precip Events Conditions
12:15 AM 50.0 °F - 50.0 °F 100% 29.82 in 7.0 mi South 12.7 mph 24.2 mph 0.01 in   Overcast
12:35 AM 50.0 °F - 50.0 °F 100% 29.82 in 7.0 mi South 19.6 mph 28.8 mph 0.01 in   Overcast
12:55 AM 50.0 °F - 50.0 °F 100% 29.82 in 7.0 mi South 21.9 mph 28.8 mph 0.01 in   Overcast
1:15 AM 50.0 °F - 50.0 °F 100% 29.82 in 5.0 mi SSW 19.6 mph 28.8 mph N/A Rain Rain
1:35 AM 50.0 °F - 50.0 °F 100% 29.83 in 5.0 mi SSW 19.6 mph 28.8 mph N/A   Overcast
1:55 AM 50.0 °F - 46.4 °F 87% 29.83 in 10.0 mi South 20.7 mph 26.5 mph N/A   Scattered Clouds
2:15 AM 50.0 °F - 48.2 °F 94% 29.83 in 7.0 mi South 17.3 mph 27.6 mph N/A   Scattered Clouds
2:35 AM 50.0 °F - 46.4 °F 87% 29.83 in 7.0 mi South 19.6 mph 28.8 mph N/A   Scattered Clouds
2:55 AM 50.0 °F - 48.2 °F 94% 29.83 in 7.0 mi South 23.0 mph 29.9 mph N/A   Mostly Cloudy
3:15 AM 50.0 °F - 48.2 °F 94% 29.83 in 5.0 mi SSW 23.0 mph 29.9 mph N/A   Mostly Cloudy
3:35 AM 50.0 °F - 48.2 °F 94% 29.83 in 5.0 mi SSW 24.2 mph 34.5 mph N/A   Mostly Cloudy
3:55 AM 50.0 °F - 48.2 °F 94% 29.83 in 5.0 mi SSW 18.4 mph 32.2 mph N/A   Scattered Clouds
4:15 AM 50.0 °F - 48.2 °F 94% 29.82 in 5.0 mi South 24.2 mph 29.9 mph N/A   Mostly Cloudy
4:35 AM 50.0 °F - 48.2 °F 94% 29.82 in 7.0 mi South 23.0 mph 34.5 mph N/A   Scattered Clouds
4:55 AM 50.0 °F - 48.2 °F 94% 29.82 in 7.0 mi SSW 20.7 mph 33.4 mph N/A   Mostly Cloudy
5:15 AM 50.0 °F - 48.2 °F 94% 29.82 in 7.0 mi South 24.2 mph 31.1 mph N/A   Overcast
5:35 AM 50.0 °F - 46.4 °F 87% 29.82 in 7.0 mi SSW 20.7 mph 32.2 mph N/A   Overcast
5:55 AM 50.0 °F - 46.4 °F 87% 29.82 in 7.0 mi South 24.2 mph 33.4 mph N/A   Mostly Cloudy
6:15 AM 50.0 °F - 46.4 °F 87% 29.82 in 5.0 mi SSW 24.2 mph 32.2 mph N/A Rain Light Rain
6:35 AM 50.0 °F - 48.2 °F 94% 29.82 in 5.0 mi SSW 31.1 mph 44.9 mph 0.01 in Rain Light Rain
6:55 AM 48.2 °F - 46.4 °F 93% 29.81 in 7.0 mi SSW 27.6 mph 34.5 mph 0.01 in Rain Light Rain
7:15 AM 50.0 °F - 46.4 °F 87% 29.82 in 5.0 mi South 26.5 mph 33.4 mph 0.01 in Rain Light Rain
7:35 AM 50.0 °F - 46.4 °F 87% 29.81 in 3.0 mi South 23.0 mph 34.5 mph 0.02 in Rain Rain
7:55 AM 50.0 °F - 46.4 °F 87% 29.82 in 5.0 mi South 23.0 mph 36.8 mph 0.05 in   Overcast
8:15 AM 50.0 °F - 46.4 °F 87% 29.83 in 7.0 mi South 28.8 mph 38.0 mph N/A   Overcast
8:35 AM 50.0 °F - 46.4 °F 87% 29.83 in 7.0 mi South 23.0 mph 38.0 mph N/A   Overcast
8:55 AM 50.0 °F - 46.4 °F 87% 29.83 in 5.0 mi South 28.8 mph 36.8 mph 0.01 in Rain Light Rain
9:15 AM 50.0 °F - 46.4 °F 87% 29.84 in 5.0 mi South 21.9 mph 33.4 mph N/A   Mostly Cloudy
9:35 AM 50.0 °F - 46.4 °F 87% 29.84 in 5.0 mi South 21.9 mph 33.4 mph N/A   Overcast
9:55 AM 50.0 °F - 46.4 °F 87% 29.85 in 5.0 mi South 21.9 mph 27.6 mph N/A   Mostly Cloudy
10:15 AM 51.8 °F - 48.2 °F 88% 29.85 in 4.0 mi SSW 20.7 mph 27.6 mph N/A   Overcast
10:35 AM 51.8 °F - 48.2 °F 88% 29.86 in 5.0 mi SSW 19.6 mph 28.8 mph N/A   Overcast
10:55 AM 51.8 °F - 50.0 °F 94% 29.86 in 4.0 mi SSW 21.9 mph 32.2 mph N/A   Overcast
11:15 AM 51.8 °F - 50.0 °F 94% 29.87 in 3.0 mi SSW 23.0 mph 31.1 mph N/A   Overcast
11:35 AM 51.8 °F - 50.0 °F 94% 29.87 in 4.0 mi SSW 23.0 mph 36.8 mph N/A Rain Light Rain
11:55 AM 51.8 °F - 50.0 °F 94% 29.88 in 4.0 mi SSW 27.6 mph 32.2 mph N/A Rain Light Rain
12:15 PM 51.8 °F - 48.2 °F 88% 29.88 in 4.0 mi SSW 21.9 mph 35.7 mph N/A Rain Light Rain
12:35 PM 50.0 °F - 46.4 °F 87% - 2.5 mi SSW 20.7 mph 29.9 mph 0.03 in Rain Light Rain
12:55 PM 50.0 °F - 46.4 °F 87% 29.90 in 5.0 mi SSW 18.4 mph 25.3 mph 0.03 in   Overcast
1:20 PM 51.8 °F - 50.0 °F 94% 29.91 in 5.0 mi SW 18.4 mph 25.3 mph N/A   Overcast
1:35 PM 51.8 °F - 50.0 °F 94% 29.92 in 5.0 mi SSW 19.6 mph - N/A   Mostly Cloudy
1:55 PM 53.6 °F - 48.2 °F 82% 29.92 in 5.0 mi SW 17.3 mph 21.9 mph N/A   Haze
2:15 PM 53.6 °F - 48.2 °F 82% 29.92 in 5.0 mi SW 16.1 mph 23.0 mph N/A   Haze
2:35 PM 53.6 °F - 50.0 °F 88% 29.93 in 5.0 mi SSW 17.3 mph - N/A   Overcast
2:55 PM 53.6 °F - 50.0 °F 88% 29.92 in 5.0 mi SSW 19.6 mph - N/A   Haze
3:15 PM 53.6 °F - 48.2 °F 82% 29.93 in 5.0 mi SSW 18.4 mph 24.2 mph N/A   Haze
3:35 PM 53.6 °F - 48.2 °F 82% 29.92 in 5.0 mi SSW 21.9 mph 25.3 mph N/A   Haze
3:55 PM 53.6 °F - 48.2 °F 82% 29.92 in 5.0 mi SSW 19.6 mph 25.3 mph N/A   Haze
4:15 PM 53.6 °F - 48.2 °F 82% 29.92 in 5.0 mi SSW 17.3 mph - N/A   Haze
4:35 PM 53.6 °F - 48.2 °F 82% 29.92 in 5.0 mi SSW 18.4 mph 24.2 mph N/A   Haze
4:55 PM 53.6 °F - 46.4 °F 77% 29.92 in 5.0 mi SSW 16.1 mph - N/A   Haze
5:15 PM 53.6 °F - 48.2 °F 82% 29.91 in 5.0 mi SW 17.3 mph 24.2 mph N/A   Haze
5:35 PM 51.8 °F - 46.4 °F 82% 29.91 in 5.0 mi SW 18.4 mph 25.3 mph N/A   Haze
5:55 PM 51.8 °F - 46.4 °F 82% 29.91 in 5.0 mi SW 16.1 mph 23.0 mph N/A   Haze
6:15 PM 51.8 °F - 46.4 °F 82% 29.92 in 7.0 mi SW 17.3 mph 26.5 mph N/A   Mostly Cloudy
6:35 PM 51.8 °F - 44.6 °F 76% 29.92 in 7.0 mi SW 17.3 mph 23.0 mph N/A   Scattered Clouds
6:55 PM 50.0 °F - 44.6 °F 82% 29.93 in 7.0 mi SW 15.0 mph - N/A   Scattered Clouds
7:15 PM 50.0 °F - 44.6 °F 82% 29.93 in 5.0 mi SW 16.1 mph 19.6 mph N/A   Haze
7:35 PM 50.0 °F - 44.6 °F 82% 29.93 in 5.0 mi SW 16.1 mph 21.9 mph N/A   Clear
7:55 PM 50.0 °F - 46.4 °F 87% 29.94 in 5.0 mi SW 16.1 mph - N/A   Mostly Cloudy
8:15 PM 50.0 °F - 44.6 °F 82% 29.94 in 7.0 mi SW 13.8 mph 19.6 mph N/A   Mostly Cloudy
8:35 PM 50.0 °F - 44.6 °F 82% 29.95 in 7.0 mi SW 11.5 mph 18.4 mph N/A   Mostly Cloudy
8:55 PM 46.4 °F 41.5 °F 42.8 °F 87% - 7.0 mi WSW 10.4 mph 16.1 mph N/A   Light Drizzle
9:15 PM 48.2 °F - 44.6 °F 87% 29.96 in 7.0 mi SW 11.5 mph 18.4 mph N/A   Scattered Clouds
9:35 PM 48.2 °F - 44.6 °F 87% 29.96 in 7.0 mi WSW 12.7 mph 18.4 mph N/A   Mostly Cloudy
9:55 PM 48.2 °F - 44.6 °F 87% 29.97 in 7.0 mi WSW 11.5 mph 17.3 mph N/A   Overcast
10:15 PM 48.2 °F - 44.6 °F 87% - 7.0 mi WSW 9.2 mph 17.3 mph N/A   Overcast
10:35 PM 46.4 °F 41.9 °F 44.6 °F 93% 29.97 in 7.0 mi WSW 9.2 mph 17.3 mph N/A   Overcast
11:15 PM 48.2 °F - 44.6 °F 87% 29.98 in 7.0 mi WSW 13.8 mph - N/A   Overcast
11:35 PM 46.4 °F 42.9 °F 42.8 °F 87% 29.99 in 10.0 mi WSW 6.9 mph - N/A   Overcast
11:55 PM 46.4 °F 42.9 °F 44.6 °F 93% 29.99 in 7.0 mi WSW 6.9 mph - N/A   Overcast